Temp
70 69 65 61 53 46 42 49 49 54 54 60 61 60 60 62 61 54 69 74 76 75 77 77 78 78 78 78 78 78 78 78 78 78 79 79 79 79 79 78 78 78 79 79 80 79 78 78 78
68 71 60 52 46 41 44 50 54 57 61 60 62 60 60 60 63 64 66 73 76 76 77 76 77 78 78 78 78 78 78 79 79 79 79 79 79 78 78 78 78 78 78 78 78 78 78 77 77
69 70 57 49 41 43 46 52 53 59 61 60 58 62 61 60 65 64 68 72 72 72 74 76 77 78 78 78 78 78 78 78 79 79 79 79 79 78 78 77 77 77 77 77 77 77 77 76 76
64 59 55 48 45 51 51 51 58 56 59 62 61 58 63 64 64 69 71 70 68 65 68 74 76 77 77 77 77 77 78 78 78 78 78 79 79 78 78 77 76 76 76 76 77 77 76 76 76
59 53 46 42 45 50 50 55 55 54 55 58 60 58 60 66 69 67 69 70 66 64 67 71 75 76 77 77 77 77 77 77 78 78 78 78 78 78 78 76 75 75 75 76 76 77 76 76 75
52 51 42 40 45 52 50 53 54 54 51 57 57 57 58 65 67 68 69 66 67 66 67 70 73 74 73 75 76 76 76 77 77 77 77 78 77 77 77 76 75 75 76 76 76 76 76 76 75
50 45 41 40 46 50 53 56 51 51 51 52 56 54 57 63 66 68 67 67 67 66 66 65 67 70 71 71 73 73 73 74 75 75 76 76 75 76 76 76 76 76 76 75 75 75 76 75 75
50 48 42 43 45 46 52 56 56 55 50 60 58 52 51 61 67 67 65 66 67 66 66 63 64 66 66 66 69 69 70 72 73 72 72 71 72 73 74 74 74 75 75 75 74 75 75 75 74
54 43 40 43 46 49 52 52 56 58 55 54 57 56 62 66 66 63 62 64 63 66 65 64 63 64 64 65 67 69 69 70 71 70 69 68 68 70 72 71 72 73 74 74 74 74 74 73 72
48 40 45 51 50 48 52 50 51 51 51 52 55 60 63 63 62 60 59 59 60 62 65 64 63 63 64 71 65 63 66 63 64 65 65 65 65 67 70 69 69 72 72 73 74 74 73 71 69
48 44 51 53 54 53 51 51 52 50 46 52 52 56 59 60 58 57 58 58 60 62 62 66 63 63 63 64 62 60 61 60 61 63 64 63 65 62 64 67 67 68 67 72 72 70 70 68 68
45 52 53 54 54 52 49 52 49 51 52 56 56 57 57 57 56 57 56 57 58 60 62 64 64 64 62 61 61 60 60 60 60 61 64 61 59 60 60 59 63 66 67 69 71 70 69 68 68
46 49 53 54 52 51 52 50 49 50 55 56 58 58 56 56 56 56 56 57 58 58 61 63 61 62 65 63 62 61 60 59 60 61 63 62 60 60 59 59 59 59 65 66 66 68 70 69 68
49 50 50 51 52 52 50 48 49 52 53 57 57 56 56 56 56 55 56 56 57 60 60 61 61 62 63 60 62 62 59 59 60 59 61 63 61 59 60 59 59 59 59 62 65 65 66 67 69
50 45 48 50 52 50 50 46 45 52 54 54 55 56 56 55 56 55 55 55 56 58 60 60 63 62 63 63 59 60 60 62 59 59 60 61 61 60 59 59 59 59 59 60 60 64 66 65 66
44 42 36 48 51 50 51 39 50 52 49 51 53 54 53 53 54 54 56 56 57 57 60 61 65 61 59 60 59 60 59 57 58 58 58 61 62 61 59 58 59 60 59 58 57 59 61 63 64
39 34 35 43 50 48 46 41 48 51 50 49 49 50 51 51 54 55 57 57 58 58 59 60 61 60 59 59 58 58 58 57 57 57 57 60 61 62 59 58 58 59 58 58 58 57 58 60 61
32 33 36 36 45 45 42 43 50 51 50 47 46 48 49 49 53 55 57 58 58 57 57 57 58 58 58 57 56 56 56 56 56 56 57 59 59 60 58 58 58 58 58 57 57 55 56 58 60
37 34 34 39 47 43 40 41 47 51 46 45 45 47 47 49 53 55 57 56 55 56 56 56 57 57 56 55 54 54 54 54 55 56 59 59 59 59 58 57 57 57 56 56 57 56 55 55 59
38 34 34 41 45 43 40 41 46 47 46 47 46 47 47 48 51 54 54 55 55 55 55 56 57 57 57 55 54 54 53 54 54 56 57 58 58 59 59 57 57 58 57 56 56 56 54 55 56
37 35 34 36 40 41 38 37 41 46 48 47 48 47 48 47 48 51 53 52 52 52 53 56 57 57 57 57 55 55 54 53 53 54 55 57 58 58 58 57 56 56 60 56 58 59 57 55 55
34 43 41 39 34 29 39 28 36 40 42 45 47 46 47 48 49 50 51 51 52 52 53 54 56 56 57 56 55 53 52 51 52 53 54 55 57 58 58 58 56 55 56 56 59 62 60 59 57
41 43 39 37 32 30 31 26 35 39 40 42 46 47 48 49 50 51 51 54 53 54 52 52 54 55 56 55 54 53 52 52 52 52 53 54 56 58 57 60 60 59 58 56 57 59 59 59 58
46 39 37 34 31 23 31 30 33 36 40 40 44 48 49 50 50 51 53 54 53 52 52 52 53 54 55 54 54 53 52 52 51 51 51 52 53 54 55 58 59 59 59 58 56 58 58 58 59
40 32 25 25 21 24 33 30 34 39 42 44 45 47 47 47 48 48 49 50 51 51 52 52 53 53 54 53 53 53 52 52 51 51 51 51 51 51 53 55 58 58 58 58 58 57 58 58 57
34 33 24 19 18 22 32 28 35 40 42 46 48 45 47 47 47 47 48 48 49 51 50 51 51 52 53 53 53 53 53 52 52 52 51 51 51 52 53 54 57 59 59 58 58 57 57 57 57
34 28 35 27 23 20 27 34 37 41 42 43 45 47 45 46 46 47 48 48 49 50 51 50 50 51 51 52 52 51 51 51 51 51 51 51 52 54 53 53 53 57 57 58 56 55 56 57 56
36 39 27 25 17 21 25 26 31 37 39 40 40 43 45 46 47 48 48 48 49 50 50 51 51 51 51 51 50 51 51 51 50 50 50 50 51 52 52 52 52 53 56 53 51 54 55 55 55
33 31 32 29 27 20 15 25 37 40 42 42 41 44 46 47 46 47 48 49 49 49 49 50 50 51 52 52 51 50 50 50 50 49 49 49 50 51 51 51 51 51 54 52 53 54 54 53 54
37 34 33 23 23 24 23 27 42 40 40 42 40 45 47 45 46 46 46 47 48 48 49 49 49 49 50 52 52 51 50 50 49 50 50 49 49 50 50 50 50 50 51 49 52 52 53 52 49
MSLP
1014.58 1014.14 1014.16 1014.79 1016.47 1017.21 1017.11 1016.25 1015.21 1014.35 1013.65 1012.83 1012.69 1012.64 1012.76 1012.99 1013.09 1013.61 1012.98 1012.71 1012.63 1012.97 1013.16 1013.31 1013.43 1013.68 1013.82 1013.99 1014.20 1014.48 1014.56 1014.64 1014.74 1014.96 1015.01 1015.08 1015.19 1015.23 1015.32 1015.52 1015.66 1015.76 1015.79 1015.76 1015.79 1015.90 1016.10 1016.32 1016.46
1014.65 1014.43 1014.85 1015.97 1017.29 1017.96 1017.35 1015.82 1014.90 1013.84 1013.19 1012.78 1012.70 1012.66 1012.96 1013.00 1013.02 1013.04 1013.08 1012.82 1012.59 1012.77 1012.91 1013.08 1013.20 1013.44 1013.60 1013.68 1013.89 1014.10 1014.29 1014.46 1014.66 1014.82 1014.95 1015.10 1015.18 1015.22 1015.26 1015.43 1015.63 1015.77 1015.84 1015.85 1015.88 1015.94 1016.15 1016.34 1016.51
1014.69 1014.84 1015.83 1016.71 1017.73 1017.57 1016.55 1015.14 1014.58 1013.86 1013.29 1013.06 1012.94 1012.77 1012.99 1013.14 1013.18 1013.20 1013.05 1012.99 1012.83 1013.08 1013.10 1013.33 1013.42 1013.55 1013.49 1013.49 1013.57 1013.69 1013.90 1014.12 1014.25 1014.51 1014.74 1014.90 1015.06 1015.28 1015.32 1015.43 1015.61 1015.81 1015.89 1015.90 1015.87 1015.94 1016.14 1016.39 1016.58
1015.06 1015.51 1016.81 1016.91 1017.05 1016.16 1015.32 1014.82 1014.37 1014.05 1013.68 1013.48 1013.52 1013.62 1013.31 1013.25 1013.25 1013.08 1013.01 1013.28 1013.40 1013.66 1013.48 1013.38 1013.36 1013.47 1013.68 1013.73 1013.76 1013.71 1013.67 1013.77 1014.02 1014.28 1014.40 1014.60 1014.93 1015.17 1015.29 1015.41 1015.59 1015.76 1015.88 1015.91 1015.83 1015.77 1016.06 1016.33 1016.57
1015.67 1016.67 1017.34 1017.32 1016.61 1015.69 1015.12 1014.87 1014.79 1014.60 1014.48 1014.58 1014.29 1014.31 1014.12 1013.81 1013.56 1013.31 1013.59 1013.71 1013.85 1014.07 1013.88 1013.75 1013.71 1013.43 1013.35 1013.53 1013.70 1013.79 1013.85 1013.81 1013.75 1013.87 1014.08 1014.27 1014.55 1014.90 1015.13 1015.26 1015.41 1015.58 1015.76 1015.86 1015.90 1015.89 1016.02 1016.18 1016.41
1016.72 1017.41 1017.93 1017.67 1016.66 1015.77 1015.58 1015.40 1015.19 1015.32 1015.26 1015.07 1015.01 1014.97 1014.75 1014.39 1014.05 1013.91 1014.02 1014.03 1014.09 1014.06 1013.89 1013.78 1013.65 1013.56 1013.59 1013.33 1013.39 1013.44 1013.56 1013.79 1013.86 1013.90 1013.89 1014.02 1014.32 1014.50 1014.81 1015.10 1015.25 1015.34 1015.53 1015.74 1015.84 1015.88 1015.97 1016.17 1016.31
1017.19 1017.87 1017.94 1017.59 1016.91 1016.37 1016.24 1015.86 1016.00 1015.94 1015.79 1015.52 1015.45 1015.36 1015.06 1014.66 1014.23 1013.87 1013.96 1014.07 1014.26 1014.19 1014.26 1014.18 1013.96 1013.89 1013.94 1013.97 1013.68 1013.53 1013.55 1013.50 1013.65 1013.83 1013.92 1013.89 1013.96 1014.24 1014.42 1014.63 1014.97 1015.20 1015.31 1015.48 1015.70 1015.83 1015.89 1016.03 1016.23
1017.40 1018.00 1018.22 1017.76 1017.49 1017.20 1017.18 1016.64 1016.50 1016.62 1016.32 1015.81 1015.43 1015.41 1015.25 1014.77 1014.47 1014.32 1013.96 1013.83 1013.85 1014.03 1014.18 1014.23 1014.16 1014.03 1014.03 1014.27 1014.35 1014.23 1014.10 1013.82 1013.87 1013.95 1013.96 1013.96 1014.07 1014.05 1014.16 1014.45 1014.63 1014.88 1015.15 1015.30 1015.47 1015.66 1015.79 1015.90 1016.01
1017.38 1018.39 1018.67 1018.12 1017.79 1017.50 1017.62 1017.59 1017.09 1016.88 1016.69 1016.53 1015.88 1015.63 1015.30 1015.07 1014.84 1014.92 1014.69 1014.49 1014.36 1014.20 1013.98 1014.01 1014.13 1014.18 1014.26 1014.19 1014.35 1014.44 1014.51 1014.31 1013.99 1014.00 1014.06 1014.21 1014.26 1014.17 1014.20 1014.27 1014.43 1014.59 1014.80 1015.02 1015.24 1015.43 1015.57 1015.71 1015.88
1018.04 1018.83 1018.45 1018.01 1017.78 1017.76 1017.83 1017.90 1017.82 1017.54 1017.19 1016.70 1016.20 1015.76 1015.38 1015.18 1015.16 1015.26 1015.25 1015.04 1014.74 1014.52 1014.14 1014.07 1013.98 1014.01 1014.19 1014.14 1014.13 1014.44 1014.52 1014.49 1014.39 1014.31 1014.17 1014.20 1014.35 1014.43 1014.41 1014.38 1014.37 1014.41 1014.54 1014.71 1014.91 1015.09 1015.32 1015.54 1015.73
1018.34 1018.54 1018.32 1017.91 1017.72 1017.80 1017.88 1017.70 1017.64 1017.56 1017.39 1016.92 1016.64 1016.05 1015.71 1015.45 1015.31 1015.39 1015.13 1014.95 1014.55 1014.08 1013.94 1013.66 1013.84 1013.75 1013.92 1014.18 1014.36 1014.32 1014.53 1014.67 1014.64 1014.50 1014.49 1014.28 1014.30 1014.47 1014.48 1014.44 1014.52 1014.54 1014.49 1014.47 1014.54 1014.78 1015.05 1015.31 1015.51
1018.43 1018.29 1018.27 1017.88 1017.80 1018.01 1018.07 1017.87 1017.81 1017.59 1016.95 1016.46 1016.44 1016.16 1015.94 1015.61 1015.38 1015.08 1014.85 1014.58 1014.26 1013.98 1013.66 1013.33 1013.37 1013.52 1013.77 1014.07 1014.41 1014.60 1014.55 1014.60 1014.73 1014.64 1014.52 1014.65 1014.71 1014.63 1014.72 1014.79 1014.66 1014.55 1014.44 1014.31 1014.20 1014.34 1014.55 1014.81 1015.06
1018.42 1018.35 1018.26 1017.96 1017.99 1017.94 1017.86 1017.68 1017.77 1017.10 1016.51 1016.36 1016.10 1015.91 1015.84 1015.65 1015.29 1014.91 1014.60 1014.24 1013.91 1013.68 1013.38 1013.29 1013.25 1013.49 1013.54 1013.77 1014.17 1014.61 1014.75 1014.75 1014.64 1014.59 1014.49 1014.53 1014.64 1014.77 1014.69 1014.78 1014.79 1014.80 1014.49 1014.46 1014.39 1014.22 1014.15 1014.24 1014.54
1018.47 1018.48 1018.33 1017.99 1017.83 1017.70 1017.63 1017.42 1017.37 1016.41 1016.21 1016.21 1016.21 1015.94 1015.61 1015.52 1015.28 1015.04 1014.53 1014.01 1013.54 1013.30 1012.99 1012.79 1013.21 1012.99 1013.65 1013.89 1013.98 1014.24 1014.69 1014.85 1014.62 1014.43 1014.53 1014.53 1014.59 1014.67 1014.67 1014.69 1014.73 1014.77 1014.71 1014.49 1014.39 1014.38 1014.29 1014.10 1014.00
1018.62 1018.85 1018.44 1018.08 1017.73 1017.59 1017.36 1017.01 1017.08 1016.24 1016.35 1016.37 1016.18 1015.81 1015.76 1015.65 1015.28 1014.92 1014.28 1013.75 1013.32 1012.96 1012.96 1012.95 1012.97 1013.01 1012.98 1013.43 1014.21 1014.11 1014.27 1014.45 1014.51 1014.47 1014.34 1014.41 1014.56 1014.61 1014.64 1014.72 1014.64 1014.59 1014.58 1014.52 1014.48 1014.26 1014.14 1014.21 1013.91
1019.16 1019.43 1019.12 1018.23 1017.89 1017.77 1017.82 1017.32 1016.60 1016.50 1016.73 1016.58 1016.26 1016.11 1015.96 1015.61 1015.36 1014.78 1014.07 1013.52 1013.19 1013.05 1012.88 1012.66 1013.07 1013.17 1013.97 1013.26 1013.73 1013.92 1014.04 1014.42 1014.58 1014.62 1014.47 1014.29 1014.26 1014.40 1014.57 1014.70 1014.58 1014.37 1014.42 1014.42 1014.50 1014.37 1014.19 1014.15 1014.03
1020.26 1020.17 1020.00 1018.94 1018.34 1018.47 1018.50 1017.72 1016.71 1016.70 1016.88 1016.74 1016.38 1016.31 1016.10 1015.68 1015.18 1014.71 1014.31 1013.78 1013.42 1013.24 1013.10 1012.93 1012.81 1013.06 1014.04 1013.58 1013.51 1013.63 1013.98 1014.30 1014.50 1014.64 1014.63 1014.43 1014.27 1014.17 1014.31 1014.50 1014.47 1014.34 1014.38 1014.47 1014.42 1014.26 1014.26 1014.12 1013.87
1021.10 1021.08 1020.64 1020.20 1019.26 1019.01 1018.69 1017.69 1016.82 1016.37 1016.67 1016.63 1016.45 1016.49 1016.24 1015.95 1015.28 1014.79 1014.38 1014.00 1013.69 1013.35 1013.11 1013.06 1013.13 1013.18 1013.55 1013.56 1013.75 1014.00 1014.23 1014.29 1014.28 1014.45 1014.56 1014.45 1014.39 1014.28 1014.26 1014.32 1014.39 1014.33 1014.40 1014.33 1014.33 1014.29 1014.05 1013.95 1013.77
1021.20 1021.41 1021.35 1020.47 1019.67 1019.62 1018.76 1018.01 1016.89 1016.05 1016.21 1016.28 1016.49 1016.35 1016.23 1015.97 1015.27 1014.89 1014.50 1014.19 1014.07 1013.95 1013.77 1013.45 1013.63 1013.90 1014.08 1014.18 1014.42 1014.52 1014.51 1014.54 1014.61 1014.49 1014.42 1014.52 1014.41 1014.31 1014.31 1014.27 1014.28 1014.19 1014.32 1014.27 1014.21 1014.11 1014.06 1013.84 1013.45
1021.00 1021.19 1021.29 1020.42 1020.04 1020.09 1018.83 1017.68 1016.33 1015.82 1015.73 1015.82 1016.07 1016.27 1016.26 1016.01 1015.52 1015.09 1014.85 1014.60 1014.52 1014.46 1014.24 1014.11 1013.98 1014.10 1014.10 1014.28 1014.41 1014.51 1014.65 1014.61 1014.55 1014.51 1014.39 1014.33 1014.32 1014.23 1014.16 1014.21 1014.17 1014.12 1014.00 1014.05 1013.99 1013.95 1013.95 1013.76 1013.50
1020.95 1021.28 1021.43 1021.62 1020.68 1019.86 1019.44 1017.85 1016.61 1015.83 1015.63 1015.76 1015.98 1016.36 1016.26 1016.14 1015.91 1015.42 1015.05 1014.87 1014.68 1014.73 1014.58 1014.34 1014.19 1013.92 1014.06 1014.32 1014.46 1014.67 1014.81 1014.79 1014.68 1014.50 1014.38 1014.19 1014.07 1014.04 1014.00 1013.88 1013.92 1013.89 1013.84 1013.72 1013.69 1013.51 1013.51 1013.46 1013.33
1021.10 1020.97 1021.41 1021.65 1021.78 1021.31 1020.36 1019.31 1017.23 1016.23 1015.99 1016.00 1016.26 1016.38 1016.24 1016.08 1015.70 1015.50 1015.25 1014.97 1014.86 1014.69 1014.70 1014.58 1014.37 1014.36 1014.33 1014.39 1014.58 1014.86 1014.99 1015.03 1014.75 1014.60 1014.44 1014.25 1013.93 1013.78 1013.75 1013.57 1013.59 1013.57 1013.59 1013.43 1013.27 1013.14 1013.03 1012.98 1012.85
1021.11 1021.14 1021.56 1021.73 1022.03 1022.04 1020.95 1020.46 1017.30 1016.65 1016.31 1016.31 1016.37 1016.33 1016.12 1015.86 1015.75 1015.53 1015.26 1014.96 1014.67 1014.53 1014.59 1014.62 1014.47 1014.45 1014.37 1014.39 1014.46 1014.61 1014.67 1014.68 1014.45 1014.36 1014.25 1013.99 1013.70 1013.34 1013.49 1013.25 1013.21 1013.20 1013.16 1013.04 1012.99 1012.84 1012.68 1012.56 1012.51
1021.23 1021.39 1021.79 1022.19 1022.55 1022.44 1020.95 1020.36 1017.76 1016.83 1016.17 1016.16 1016.17 1016.25 1016.21 1016.00 1015.83 1015.59 1015.33 1015.05 1014.79 1014.58 1014.55 1014.59 1014.58 1014.38 1014.33 1014.38 1014.32 1014.45 1014.46 1014.33 1014.35 1014.23 1014.16 1013.84 1013.52 1013.31 1013.31 1013.06 1013.02 1012.96 1012.83 1012.78 1012.57 1012.49 1012.28 1012.11 1012.00
1021.81 1022.37 1022.87 1023.41 1023.45 1022.52 1021.25 1020.44 1017.51 1016.48 1016.03 1016.04 1016.24 1016.37 1016.37 1016.31 1016.04 1015.84 1015.59 1015.24 1015.03 1014.88 1014.57 1014.40 1014.38 1014.24 1014.05 1014.04 1014.15 1014.14 1014.09 1014.09 1014.07 1013.90 1013.77 1013.58 1013.40 1013.24 1012.96 1012.79 1012.80 1012.76 1012.60 1012.54 1012.32 1012.16 1011.87 1011.63 1011.50
1022.60 1023.19 1024.21 1024.95 1024.93 1023.72 1021.66 1020.06 1017.48 1016.60 1016.31 1016.31 1016.33 1016.52 1016.65 1016.66 1016.40 1016.18 1015.93 1015.53 1015.17 1014.86 1014.55 1014.42 1014.26 1014.13 1013.91 1013.83 1013.64 1013.59 1013.60 1013.61 1013.49 1013.39 1013.33 1013.24 1013.07 1012.75 1012.58 1012.47 1012.43 1012.49 1012.44 1012.28 1012.00 1011.83 1011.47 1011.41 1011.06
1022.96 1023.52 1024.14 1024.91 1025.32 1024.79 1021.97 1019.47 1017.64 1017.00 1016.75 1016.73 1016.92 1017.01 1017.07 1016.90 1016.54 1016.27 1016.11 1015.79 1015.43 1015.09 1014.66 1014.37 1014.16 1013.93 1013.79 1013.63 1013.43 1013.25 1013.10 1013.12 1013.07 1012.82 1012.73 1012.62 1012.47 1012.39 1012.30 1012.18 1012.09 1012.07 1012.11 1011.89 1011.73 1011.41 1011.07 1010.89 1010.62
1022.97 1023.73 1024.51 1025.43 1025.78 1024.91 1022.36 1020.44 1018.31 1017.41 1017.03 1016.95 1017.02 1017.15 1017.11 1017.05 1016.86 1016.57 1016.35 1015.96 1015.65 1015.34 1014.99 1014.56 1014.33 1014.06 1013.66 1013.37 1013.14 1012.95 1012.78 1012.59 1012.40 1012.31 1012.27 1012.09 1011.88 1011.87 1011.84 1011.75 1011.63 1011.57 1011.58 1011.64 1011.51 1011.10 1010.79 1010.50 1010.11
1023.43 1023.64 1024.47 1025.36 1025.52 1025.23 1023.57 1020.38 1017.65 1017.13 1016.91 1017.01 1017.09 1017.17 1017.15 1017.06 1016.81 1016.87 1016.63 1016.24 1015.92 1015.57 1015.30 1015.02 1014.59 1014.21 1013.72 1013.29 1012.88 1012.55 1012.16 1011.93 1011.82 1011.76 1011.50 1011.34 1011.21 1011.15 1011.13 1011.07 1011.08 1010.98 1010.90 1011.09 1011.00 1010.69 1010.47 1010.22 1009.84
1023.19 1023.59 1024.26 1025.30 1025.30 1024.80 1023.62 1019.99 1017.43 1017.07 1017.00 1017.04 1017.10 1017.10 1016.96 1016.77 1017.01 1016.99 1016.87 1016.55 1016.10 1015.85 1015.40 1015.18 1014.79 1014.41 1013.96 1013.40 1012.97 1012.56 1012.11 1011.63 1011.36 1011.04 1010.71 1010.45 1010.34 1010.19 1010.20 1010.24 1010.30 1010.30 1010.25 1010.42 1010.49 1010.25 1010.17 1010.09 1009.87
Wind_Speed
8 7 2 6 6 6 1 3 2 3 1 4 3 2 4 5 4 5 4 2 11 10 9 10 12 11 11 8 8 6 7 9 8 8 8 8 8 10 10 9 8 6 5 4 4 10 10 9 9
5 4 6 3 7 4 4 4 6 4 5 1 1 1 3 4 0 2 3 3 7 7 7 8 13 12 13 11 10 8 7 6 7 7 7 7 7 6 9 10 8 7 5 3 0 9 10 10 10
4 1 5 5 4 5 7 6 4 3 5 2 1 1 2 2 1 5 4 7 7 6 5 5 10 10 12 13 12 12 10 7 8 5 6 7 4 3 5 6 6 5 4 3 1 9 11 11 9
3 6 5 5 6 5 5 3 5 1 1 4 3 4 2 1 2 6 5 6 7 4 4 6 7 10 10 11 10 11 11 10 10 9 10 9 9 7 6 7 5 5 4 4 3 8 12 11 10
5 4 4 1 4 3 1 1 1 1 3 6 6 5 6 7 7 2 5 6 7 4 3 3 4 8 13 11 11 11 10 11 12 13 11 9 11 10 8 8 8 7 7 6 5 10 12 12 11
5 3 4 3 5 2 3 2 1 4 2 5 5 5 4 5 4 4 5 6 3 4 4 3 4 2 6 12 14 14 14 12 11 8 8 8 11 11 10 9 9 10 9 8 8 8 12 11 12
6 4 4 2 3 4 3 6 3 1 4 3 2 4 4 6 4 4 5 6 5 4 4 2 3 2 2 6 5 6 8 10 9 8 9 10 11 11 11 11 11 11 11 10 9 9 11 12 11
5 5 1 2 2 1 6 7 3 6 2 7 1 3 3 4 6 5 3 6 8 7 5 5 4 4 3 2 5 6 6 5 5 7 7 6 8 9 11 10 11 12 11 10 11 11 10 12 12
3 5 1 2 3 4 4 5 5 4 2 5 4 3 4 7 5 5 6 5 5 2 5 6 5 4 4 4 4 5 7 7 4 3 4 4 4 5 6 6 9 11 11 11 11 12 12 10 11
5 4 4 2 1 3 4 1 4 3 7 4 6 6 9 6 5 6 7 8 6 6 6 5 6 7 6 3 4 3 3 3 3 3 2 2 2 3 4 6 9 10 11 11 12 12 11 8 4
1 4 1 3 2 1 3 6 1 4 4 7 8 8 8 7 8 8 9 8 10 7 4 7 6 6 6 4 2 1 0 2 3 4 3 1 2 2 3 2 2 3 7 4 7 6 4 5 4
1 3 2 3 2 4 3 3 4 5 9 7 9 9 8 11 9 10 10 10 8 9 8 8 7 7 6 3 3 0 1 1 2 2 2 2 1 2 3 2 3 3 3 4 5 4 6 6 6
2 2 4 5 8 7 4 8 7 9 11 8 8 8 10 9 10 10 9 9 9 8 9 8 5 4 4 6 4 3 2 1 2 0 1 1 2 2 1 2 2 3 3 3 4 4 6 7 7
2 4 7 7 5 5 4 4 1 6 3 7 8 10 8 8 8 7 8 9 9 10 9 8 7 9 5 3 5 4 3 4 2 1 2 3 2 3 3 3 2 2 2 3 3 4 4 6 7
2 6 6 3 2 2 3 4 6 6 6 9 9 8 8 8 8 9 10 9 8 6 6 5 7 5 8 9 3 4 3 2 2 2 2 3 3 3 4 3 4 3 2 4 4 4 4 4 4
3 3 5 3 4 3 8 10 7 5 5 12 10 7 7 7 8 7 8 4 3 1 2 3 3 6 5 5 5 3 2 0 2 2 2 3 3 3 3 3 4 4 3 2 2 3 4 4 4
6 2 3 10 7 3 2 11 6 4 6 10 8 7 7 8 8 6 6 4 4 4 1 4 6 6 12 5 3 3 3 2 2 3 3 4 4 2 1 2 3 4 3 3 2 2 3 4 4
4 4 4 4 6 4 9 20 18 12 6 8 6 8 7 7 7 7 7 6 6 4 4 1 1 5 5 3 3 2 0 2 1 2 3 2 1 2 1 1 3 3 3 4 3 3 2 4 5
2 2 5 6 8 7 6 13 19 13 5 5 4 6 8 7 7 6 5 4 4 4 3 3 5 2 2 2 1 1 2 2 1 1 1 4 3 3 3 2 3 3 3 4 4 3 3 3 3
1 3 6 7 2 6 7 16 12 5 1 3 2 6 7 7 8 7 7 5 3 3 1 1 0 1 1 1 0 1 1 2 2 2 4 3 2 2 3 3 4 5 3 5 4 2 2 2 2
3 3 2 6 8 3 7 7 6 4 4 3 4 4 5 6 7 7 7 5 5 4 5 4 4 4 4 2 1 2 2 2 2 2 3 2 2 3 4 4 4 4 4 4 6 4 4 5 3
5 3 2 6 6 4 5 6 5 1 2 3 6 6 6 6 5 5 6 6 6 6 5 6 5 3 2 2 2 3 3 3 2 2 2 4 5 3 5 5 4 4 4 5 6 6 5 5 7
8 2 6 2 3 4 1 3 7 1 2 3 6 6 6 6 6 7 6 6 5 4 4 5 4 4 4 4 5 4 5 4 3 3 5 5 5 2 6 5 4 5 4 5 6 7 7 6 6
7 4 3 4 3 2 3 4 6 3 3 1 3 6 7 8 7 7 7 6 4 4 3 4 5 6 5 5 6 6 7 6 4 4 4 4 4 3 4 5 4 5 5 6 5 7 9 8 7
7 6 5 6 5 5 4 1 10 2 2 1 3 6 7 7 7 7 7 7 7 7 7 5 5 7 7 6 6 7 8 7 7 6 5 5 4 3 5 4 4 4 6 6 6 7 9 8 8
2 3 6 5 2 6 5 7 6 0 2 4 4 3 5 7 7 7 7 7 7 7 7 6 6 8 7 7 7 6 7 5 5 6 5 5 4 4 5 5 4 8 9 9 8 6 6 8 8
1 2 2 1 2 2 4 8 2 2 4 4 6 6 7 7 6 7 8 7 7 8 8 6 6 7 7 7 6 7 6 7 7 8 6 4 5 5 6 6 6 5 8 10 7 6 7 7 8
1 2 3 3 1 5 6 7 6 6 3 2 3 5 6 4 6 6 6 7 7 6 6 8 7 7 8 7 6 6 7 7 7 6 8 7 7 6 6 7 6 6 6 6 6 8 7 8 8
1 1 2 3 4 4 3 8 7 5 6 7 4 4 7 6 1 3 6 7 6 6 7 7 8 8 8 7 7 7 7 7 6 6 7 8 7 7 7 8 7 7 5 7 8 11 10 9 9
2 3 4 4 5 4 2 9 3 5 3 5 2 5 7 5 2 3 5 7 7 7 7 8 8 7 7 7 6 7 7 8 7 8 8 7 8 7 7 7 7 7 6 6 7 9 8 9 10
Wind_Direction
331 317 69 41 56 63 50 262 285 10 354 222 248 135 178 171 187 226 246 180 137 157 171 163 162 169 164 172 144 156 180 167 176 184 178 180 183 181 168 163 161 158 145 151 179 164 148 142 138
328 329 40 87 82 66 274 239 211 211 220 289 303 69 121 243 105 167 137 177 158 155 166 168 166 171 173 172 162 160 153 154 163 178 190 193 199 215 191 172 167 173 182 181 189 167 154 149 148
305 68 80 93 115 168 205 214 218 254 261 274 332 30 108 220 28 169 228 150 120 129 134 174 172 184 184 180 176 170 159 162 172 189 184 179 132 142 144 160 172 189 197 227 220 169 153 153 159
6 10 30 97 205 237 225 183 225 268 350 10 2 328 333 306 204 196 157 140 109 106 129 157 183 197 199 194 189 185 176 169 166 185 208 195 185 191 192 187 180 188 201 216 206 181 161 159 165
33 53 61 95 260 255 249 150 352 328 15 15 353 316 299 347 3 122 103 133 134 155 171 148 176 218 209 194 192 194 193 189 191 204 206 208 184 191 198 180 181 193 197 204 206 178 173 169 175
37 91 73 221 244 291 49 0 22 16 15 331 33 339 289 314 14 326 60 158 161 163 178 171 158 240 252 210 215 202 197 201 210 215 199 193 188 190 194 189 193 196 199 203 208 209 189 186 187
110 88 201 227 268 337 41 331 50 7 360 331 265 313 306 343 290 218 117 151 175 183 185 194 174 185 239 257 226 234 233 209 212 216 223 202 197 197 202 193 196 206 203 206 209 210 205 197 201
97 86 41 291 309 308 0 358 29 47 306 303 316 270 282 298 292 281 233 156 169 186 198 205 205 191 184 228 243 253 258 221 224 241 242 240 220 207 204 204 199 203 208 207 207 212 217 213 205
73 61 221 319 358 288 22 16 333 286 275 334 276 291 257 301 324 320 324 327 320 243 201 194 202 211 212 193 226 227 238 257 246 267 288 281 263 235 220 210 204 207 207 206 207 214 219 221 211
76 105 216 188 246 273 302 42 288 339 322 285 296 300 308 314 257 262 259 264 273 279 265 211 206 204 202 227 183 217 274 295 291 269 247 257 281 282 256 237 221 216 213 213 214 214 218 217 204
156 180 250 216 219 273 269 311 251 300 294 241 267 275 279 280 286 253 253 235 238 240 245 249 207 202 187 209 194 176 260 312 315 311 303 352 34 356 350 258 258 241 232 220 217 214 209 209 200
337 218 213 264 296 332 279 254 269 215 241 234 258 267 282 281 275 268 249 241 235 237 249 253 205 186 181 164 176 154 258 236 305 314 6 45 43 21 4 359 326 264 262 242 213 203 207 206 203
181 268 296 277 295 261 260 247 233 246 259 285 284 294 278 289 285 282 264 272 260 232 234 233 172 178 178 145 152 189 239 281 223 231 313 38 332 324 333 311 332 328 312 257 250 222 217 209 207
247 276 273 285 255 253 259 269 61 274 273 309 312 297 308 315 312 305 306 271 245 246 234 208 219 170 177 199 163 172 188 216 221 176 283 317 335 311 307 299 283 297 315 312 271 249 238 223 219
314 317 313 218 257 254 282 326 223 243 2 312 320 322 327 313 326 307 283 280 263 256 278 227 207 205 168 163 216 181 192 217 243 273 296 306 301 283 290 295 299 281 272 303 310 285 252 252 223
330 56 7 287 338 43 69 278 289 283 351 312 316 314 317 335 308 319 349 8 12 144 187 239 175 146 281 171 173 174 156 264 306 294 293 282 272 266 277 277 282 291 287 260 288 297 290 249 240
4 311 336 332 1 321 42 281 249 300 309 294 308 320 336 326 330 352 317 321 42 25 311 279 182 170 214 174 142 132 155 193 250 283 289 296 300 302 222 265 288 309 308 298 268 273 257 281 265
324 344 331 267 291 25 290 270 285 292 306 291 298 310 335 324 305 326 297 306 348 360 17 315 269 160 163 113 92 89 179 276 280 286 289 315 358 15 53 300 307 322 317 305 302 275 268 240 260
171 215 262 243 276 312 260 284 284 291 282 277 286 337 326 318 300 342 344 339 6 16 48 91 105 95 112 78 84 15 287 329 319 286 278 313 312 314 313 294 290 290 279 265 279 279 287 291 253
180 324 296 297 300 326 305 288 286 271 233 155 7 342 327 329 328 330 329 325 311 301 295 72 39 289 272 93 192 134 204 261 241 273 285 274 293 321 308 316 294 269 245 283 274 245 288 267 244
317 216 285 264 320 276 309 305 346 19 83 42 5 316 323 320 313 321 335 345 319 290 275 253 253 214 212 220 21 5 0 332 331 312 301 282 275 286 271 277 285 284 284 265 263 237 233 268 265
323 193 283 291 14 295 59 280 308 20 65 347 318 310 317 324 330 315 326 325 328 281 284 292 284 281 267 206 199 222 222 249 232 255 264 278 263 266 315 289 286 278 262 259 263 261 248 250 269
244 333 287 244 193 9 286 66 265 310 252 289 299 318 316 314 311 316 313 310 309 325 273 286 292 284 271 240 229 224 248 249 266 270 274 271 258 287 277 283 272 277 268 254 264 269 259 251 256
300 322 33 52 82 13 253 130 280 202 204 275 310 324 327 322 318 315 309 312 312 309 293 274 278 276 265 266 255 242 247 257 262 262 270 269 268 263 260 282 278 276 283 279 266 267 260 257 253
19 26 337 350 4 227 316 330 245 234 180 142 336 345 347 344 350 335 329 318 312 304 290 274 255 273 276 260 258 246 244 248 252 258 252 261 258 242 243 240 272 277 286 288 284 284 280 262 254
334 122 147 254 275 285 309 239 267 193 48 28 26 355 1 352 349 348 340 337 326 315 298 281 278 276 273 273 260 255 254 244 243 244 246 250 243 237 242 245 230 278 282 283 283 277 270 278 278
18 52 166 98 282 22 264 285 359 62 46 15 18 12 348 349 355 8 350 357 348 343 331 314 294 276 272 266 268 262 251 245 249 252 245 246 248 243 240 240 239 254 276 282 291 285 276 274 276
158 164 43 5 319 268 284 282 243 225 188 99 43 9 332 329 359 17 10 2 358 351 339 347 340 307 300 290 264 259 256 247 245 246 250 243 244 233 240 238 235 243 263 273 281 276 282 279 282
97 204 136 142 171 201 272 267 217 214 194 149 94 359 306 302 227 32 20 1 358 353 358 346 348 339 331 323 312 301 285 266 252 239 238 233 233 227 226 226 230 232 240 265 272 284 285 278 281
245 233 156 130 261 244 203 268 306 225 114 117 27 306 280 270 259 45 21 353 359 353 352 345 340 338 328 317 312 302 298 298 289 278 265 249 244 233 231 226 227 230 233 230 258 276 276 279 284